FW0857 Weather Reports


time (UTC)temp
F
wind
direction
speed
knots
gust
knots
rain 1hr
in
rain 24hr
in
rain mn
in
humidity
%
barometer
mb
20260510024506 60 82 2.6 4.3 0.00 0.00 0.00 41 991.4
20260510023103 63 82 2.6 4.3 0.00 0.00 0.00 36 991.3
20260510021553 67 62 0.0 1.7 0.00 0.00 0.00 35 991.1
20260510020050 74 62 0.0 3.5 0.00 0.00 0.00 28 990.9
20260510014553 77 61 3.5 6.1 0.00 0.00 0.00 16 990.9
20260510013048 78 360 2.6 5.2 0.00 0.00 0.00 11 990.8
20260510011544 80 20 7.0 10.4 0.00 0.00 0.00 11 990.6
20260510010056 80 13 3.5 6.1 0.00 0.00 0.00 12 990.5
20260510004544 81 327 4.3 7.8 0.00 0.00 0.00 12 990.4
20260510003054 81 325 5.2 10.4 0.00 0.00 0.00 11 990.5
20260510001545 81 10 5.2 11.3 0.00 0.00 0.00 12 990.6
20260510000048 82 293 3.5 10.4 0.00 0.00 0.00 14 990.6
20260509234546 82 350 4.3 10.4 0.00 0.00 0.00 11 990.5
20260509233036 82 225 1.7 9.6 0.00 0.00 0.00 13 990.7
20260509231508 82 338 6.1 10.4 0.00 0.00 0.00 11 990.8
20260509230006 82 80 7.8 10.4 0.00 0.00 0.00 12 991.0
20260509224532 82 47 5.2 13.0 0.00 0.00 0.00 12 991.1
20260509223031 83 19 4.3 8.7 0.00 0.00 0.00 11 991.2
20260509221600 83 286 1.7 8.7 0.00 0.00 0.00 13 991.4
20260509214550 82 182 1.7 7.0 0.00 0.00 0.00 12 991.9
20260509213048 82 104 3.5 8.7 0.00 0.00 0.00 13 992.1
20260509211546 82 68 6.1 13.0 0.00 0.00 0.00 13 992.4
20260509210043 81 301 0.9 7.8 0.00 0.00 0.00 15 992.7
20260509204553 81 177 5.2 8.7 0.00 0.00 0.00 13 993.1
20260509203036 81 94 6.1 11.3 0.00 0.00 0.00 16 993.6
20260509201531 81 62 1.7 13.9 0.00 0.00 0.00 14 993.8
20260509200036 81 348 5.2 10.4 0.00 0.00 0.00 14 993.9
20260509194537 80 321 1.7 7.0 0.00 0.00 0.00 15 994.0
20260509193033 79 298 2.6 7.0 0.00 0.00 0.00 18 994.3
20260509191519 79 184 6.1 12.2 0.00 0.00 0.00 15 994.5
20260509190016 79 246 2.6 7.0 0.00 0.00 0.00 15 994.5
20260509184512 77 293 0.9 11.3 0.00 0.00 0.00 19 994.9
20260509183008 77 146 2.6 12.2 0.00 0.00 0.00 18 995.1
20260509181505 77 125 7.8 11.3 0.00 0.00 0.00 17 995.4
20260509180100 76 213 6.1 13.9 0.00 0.00 0.00 16 995.5
20260509174603 76 203 4.3 8.7 0.00 0.00 0.00 17 995.6
20260509173059 75 139 5.2 15.6 0.00 0.00 0.00 17 995.9
20260509171553 75 181 1.7 11.3 0.00 0.00 0.00 18 995.9
20260509170047 75 136 7.0 11.3 0.00 0.00 0.00 20 996.0
20260509164546 74 333 4.3 10.4 0.00 0.00 0.00 17 995.8
20260509163038 73 109 2.6 9.6 0.00 0.00 0.00 19 996.1
20260509161534 72 259 0.9 7.8 0.00 0.00 0.00 23 996.4
20260509160032 69 180 2.6 7.0 0.00 0.00 0.00 24 996.5
20260509154535 66 328 2.6 6.1 0.00 0.00 0.00 25 996.7
20260509153007 65 301 0.0 4.3 0.00 0.00 0.00 27 996.8
20260509151503 63 338 1.7 5.2 0.00 0.00 0.00 30 997.0
20260509150031 61 319 0.0 4.3 0.00 0.00 0.00 34 997.2
20260509144531 61 157 0.0 1.7 0.00 0.00 0.00 35 997.3
20260509143034 58 157 0.0 1.7 0.00 0.00 0.00 33 997.1
20260509141529 56 102 0.0 1.7 0.00 0.00 0.00 37 997.1
20260509140046 53 100 0.0 0.9 0.00 0.00 0.00 40 997.0
20260509134526 50 99 0.0 0.9 0.00 0.00 0.00 44 997.1
20260509133023 47 99 0.0 0.0 0.00 0.00 0.00 50 996.9
20260509131533 44 99 0.0 0.0 0.00 0.00 0.00 63 996.9
20260509130024 40 360 0.0 4.3 0.00 0.00 0.00 59 996.8
20260509124515 40 109 0.9 4.3 0.00 0.00 0.00 55 996.5
20260509123100 41 108 1.7 4.3 0.00 0.00 0.00 50 996.4
20260509121653 41 110 3.5 5.2 0.00 0.00 0.00 49 996.2
20260509120044 42 109 2.6 5.2 0.00 0.00 0.00 47 996.2
20260509114535 44 109 3.5 6.1 0.00 0.00 0.00 45 996.1
20260509113027 44 99 5.2 9.6 0.00 0.00 0.00 45 995.9
20260509111522 41 101 4.3 7.0 0.00 0.00 0.00 53 995.9
20260509110014 37 110 3.5 5.2 0.00 0.00 0.00 62 995.9
20260509104507 36 115 1.7 4.3 0.00 0.00 0.00 66 995.8
20260509103057 38 115 0.0 1.7 0.00 0.00 0.00 65 995.7
20260509101547 38 115 0.9 4.3 0.00 0.00 0.00 61 995.5
20260509100037 41 117 1.7 4.3 0.00 0.00 0.00 54 995.4
20260509094535 41 112 0.9 4.3 0.00 0.00 0.00 51 995.3
20260509093003 42 114 1.7 3.5 0.00 0.00 0.00 53 995.2
20260509091501 43 115 2.6 5.2 0.00 0.00 0.00 50 995.3
20260509090108 43 110 2.6 5.2 0.00 0.00 0.00 49 995.4
20260509084559 43 106 3.5 5.2 0.00 0.00 0.00 51 995.4
20260509083058 43 118 2.6 4.3 0.00 0.00 0.00 50 995.6
20260509081547 44 121 2.6 5.2 0.00 0.00 0.00 47 995.6
20260509080048 45 119 2.6 5.2 0.00 0.00 0.00 45 995.6
20260509074543 45 101 3.5 6.1 0.00 0.00 0.00 48 995.6
20260509073046 45 109 4.3 6.1 0.00 0.00 0.00 46 995.5
20260509071538 45 111 4.3 6.1 0.00 0.00 0.00 46 995.6
20260509070037 45 118 3.5 6.1 0.00 0.00 0.00 46 995.8
20260509064505 46 105 3.5 6.1 0.00 0.00 0.00 45 995.9
20260509063003 46 107 4.3 7.0 0.00 0.00 0.00 46 996.0
20260509061600 45 107 3.5 6.1 0.00 0.00 0.00 47 996.0
20260509054611 46 121 3.5 5.2 0.00 0.00 0.00 46 995.9
20260509053132 46 108 1.7 5.2 0.00 0.00 0.00 48 995.8
20260509051522 46 109 2.6 6.1 0.00 0.00 0.00 48 995.7
20260509050021 45 109 3.5 5.2 0.00 0.00 0.00 52 995.7
20260509044516 46 107 1.7 4.3 0.00 0.00 0.00 56 995.7
20260509043013 47 360 0.9 2.6 0.00 0.00 0.00 55 995.6
20260509041508 50 360 0.9 3.5 0.00 0.00 0.00 48 995.4
20260509040006 51 360 1.7 4.3 0.00 0.00 0.00 40 995.2
20260509034537 52 360 4.3 6.1 0.00 0.00 0.00 41 994.9
20260509033032 53 360 4.3 5.2 0.00 0.00 0.00 39 994.6
20260509031530 53 105 4.3 6.1 0.00 0.00 0.00 40 994.4
20260509030027 51 360 4.3 6.1 0.00 0.00 0.00 43 994.3